Lid_Strength_Index
2 2 2 1 1 1 1 1 1 1 1 1 2 1 1 1 4 8 9 6 4 2 3 9 10 10 11 13 13 14 17 19 19 18 18 17 18 17 16 17 16 15 16 13 11
2 2 2 2 1 1 1 1 1 1 1 1 1 1 2 2 9 11 6 2 2 2 9 10 12 12 14 14 14 17 19 19 19 19 19 17 17 17 16 17 16 16 13 11 11
2 2 2 2 1 1 1 2 2 2 2 2 1 2 2 4 12 12 4 3 2 4 9 10 11 12 14 14 15 17 19 17 17 17 16 16 17 16 17 18 16 16 14 13 12
2 1 1 1 1 1 1 2 3 3 3 2 2 2 2 9 16 10 4 4 4 7 9 11 12 15 16 16 14 18 15 15 15 14 15 16 15 16 16 15 14 14 14 13 12
2 1 1 1 1 1 1 2 3 3 3 3 3 2 8 13 13 8 6 7 8 9 11 12 13 15 16 15 15 16 16 14 14 14 15 14 15 16 15 14 13 13 12 13 12
2 2 1 1 1 1 2 2 2 3 4 4 4 4 12 16 10 10 10 9 9 10 11 11 12 13 14 15 16 16 15 15 15 14 14 15 16 16 15 15 14 13 12 12 12
2 2 2 1 1 1 2 2 2 4 4 4 4 9 13 15 10 11 10 10 9 9 11 11 11 13 13 15 14 15 17 17 15 15 15 15 17 17 15 14 14 13 13 12 12
2 2 2 2 1 1 2 3 3 4 4 4 5 12 15 10 11 10 10 9 8 8 9 10 10 11 13 13 15 18 18 20 17 15 15 15 19 16 15 16 14 14 13 13 12
1 2 1 2 2 2 3 4 5 5 5 6 12 13 16 9 11 10 10 10 9 9 9 8 11 14 14 17 19 19 23 20 18 15 16 16 18 15 15 14 14 15 15 14 13
1 1 1 1 2 3 4 5 5 8 9 10 11 13 13 15 12 11 10 9 10 11 11 12 15 18 19 20 24 23 23 20 20 18 17 18 17 14 14 15 16 15 15 14 13
1 1 1 1 2 4 8 9 10 10 12 16 16 15 14 12 11 11 10 10 11 13 17 15 19 21 19 19 19 19 20 21 19 17 17 18 18 16 14 16 16 16 16 15 14
1 1 1 2 3 5 10 13 13 12 14 13 14 14 13 12 14 13 10 14 16 19 16 19 21 18 16 16 17 18 23 23 18 17 18 19 18 16 16 16 16 16 16 15 15
1 1 1 2 4 9 12 12 10 11 16 14 15 15 15 13 15 14 11 14 18 20 20 20 17 15 16 17 18 19 22 23 20 18 19 20 21 19 17 16 16 16 16 16 15
1 1 3 3 6 10 12 10 10 11 19 16 17 15 14 13 15 12 11 13 16 20 18 19 15 16 17 18 18 23 18 17 19 24 27 19 26 20 19 17 16 15 16 16 16
1 3 4 4 9 11 11 10 11 12 23 16 17 13 14 15 15 14 11 14 16 18 19 19 17 17 19 17 17 19 17 18 20 27 24 25 28 21 19 18 17 16 15 16 15
2 3 4 6 10 11 10 11 11 17 23 19 17 17 16 15 15 14 14 13 14 16 16 19 16 17 17 16 16 17 20 21 23 29 30 28 27 23 20 20 18 17 16 15 15
4 5 7 8 10 10 10 11 18 22 17 19 19 17 18 17 16 16 16 17 19 22 24 19 18 16 16 17 16 18 26 29 29 31 28 32 27 21 19 18 17 16 15 15 15
3 6 7 8 9 9 10 15 23 22 22 15 17 16 18 17 17 18 18 19 18 19 26 26 24 21 15 17 21 20 24 27 32 30 29 30 27 21 18 17 17 16 16 15 15
3 7 8 8 7 8 11 20 19 19 14 16 15 19 20 17 19 20 20 20 17 19 22 25 24 17 15 15 18 22 25 21 30 34 32 29 25 19 17 20 18 17 16 16 15
5 6 9 8 7 7 13 15 17 13 15 15 18 17 22 21 19 22 19 17 16 16 18 20 24 21 17 15 17 21 18 25 28 31 33 30 33 22 22 23 21 20 20 17 16
4 8 9 8 8 10 15 18 15 11 14 15 16 20 17 20 19 21 19 16 16 17 16 21 24 23 17 21 21 20 25 25 25 25 30 32 26 22 22 23 23 21 19 19 18
5 11 8 8 11 12 12 12 11 13 14 14 15 15 17 17 19 22 19 17 15 17 18 17 21 26 22 18 17 19 23 21 25 28 28 26 24 18 23 27 29 22 19 18 18
9 9 8 8 13 13 11 11 13 14 15 15 15 14 16 20 20 17 17 14 14 15 17 16 24 27 22 20 18 21 19 19 22 21 27 27 22 22 28 26 23 23 20 18 19
10 12 11 10 10 11 12 12 12 12 13 13 13 14 15 18 17 18 16 14 14 14 12 13 19 22 22 21 24 22 20 18 19 25 22 21 18 15 14 15 15 18 21 21 20
8 11 12 14 12 11 11 12 14 12 13 13 16 14 16 17 18 21 16 15 15 13 14 15 22 20 20 20 23 20 21 18 20 20 22 18 20 16 15 15 14 21 21 19 20
10 12 11 13 12 12 11 12 12 11 12 13 17 14 14 18 14 15 15 15 16 15 15 16 24 24 27 19 19 22 19 18 18 18 19 18 19 14 14 15 19 19 22 21 20
9 7 8 11 12 13 13 12 12 12 11 11 13 13 15 13 12 11 12 13 13 14 15 17 22 25 26 23 25 24 20 19 21 21 20 23 17 15 17 19 22 21 25 21 20